Weather Roundup
Issued by NWS

Home | Current Version | Previous Version | Graphics & Text | Print | Product List | Glossary Off
Versions: 1 2 3 4 5 6 7 8 9 10 11 12 13 14 15 16 17 18 19 20 21 22 23 24 25 26 27 28 29 30 31 32 33 34 35 36 37 38 39 40 41 42 43 44 45 46 47 48 49 50

000
NZUS93 KARX 021410
HRRWXR

CURRENT HOURLY OBSERVATIONS ACROSS
MUCH OF THE UPPER MISSISSIPPI VALLEY
NATIONAL WEATHER SERVICE LA CROSSE WI
800 AM CST MON MAR 02 2015


...SOUTHEAST MINNESOTA...


CITY           SKY/WX    TMP DP  RH WIND       PRES   REMARKS
ROCHESTER      MOSUNNY    4   4 100 W3        30.45R FOG
ROCHESTER/MAYO FAIR      11   6  80 CALM      30.46R
WINONA         PTSUNNY   12   9  85 CALM      30.52R
AUSTIN         PTSUNNY    1  -2  85 SW5       30.47R WCI  -8
ALBERT LEA       N/A      3   1  92 CALM      30.46S
DODGE CENTER   PTSUNNY    1   0  92 W3        30.44S FOG
PRESTON        MOSUNNY    6   4  89 CALM      30.46R
OWATONNA       PTSUNNY    7   3  85 CALM      30.47R
FARIBAULT      PTSUNNY    3   0  85 CALM      30.47R
$$

...ELSEWHERE IN MINNESOTA...


CITY           SKY/WX    TMP DP  RH WIND       PRES   REMARKS
MINNEAPOLIS    MOSUNNY   11   7  84 SW3       30.47S
INTNL FALLS    PTCLDY    -3  -6  87 SW5       30.31F WCI -13
DULUTH         MOSUNNY    5   0  79 W9        30.34R WCI  -9
RED WING       MOSUNNY    7   1  78 CALM      30.48R
REDWOOD FALLS  PTSUNNY    4   1  88 S6        30.45R WCI  -7
MANKATO        MOSUNNY    3   0  85 CALM      30.47R
FAIRMONT       PTSUNNY    5   1  85 SW3       30.44F
$$

...SOUTHWEST WISCONSIN...


CITY           SKY/WX    TMP DP  RH WIND       PRES   REMARKS
LA CROSSE      MOSUNNY   11   7  84 CALM      30.51R
PRAIRIE DU CHI PTSUNNY    6   2  83 CALM      30.53R
BOSCOBEL       CLOUDY     7   4  87 CALM      30.52R FOG
LONE ROCK      MOSUNNY    1  -3  83 CALM      30.51R
PLATTEVILLE    MOSUNNY    9   6  88 SW3       30.49R
FORT MC COY    MOSUNNY    5   1  81 CALM      30.50R
CAMP DOUGLAS   SUNNY     12   9  85 W3        30.47R
VIROQUA        FAIR      12  10  92 CALM      30.46R
WIS DELLS      MOSUNNY   13   8  81 W3        30.47R
$$

...ELSEWHERE IN WISCONSIN...


CITY           SKY/WX    TMP DP  RH WIND       PRES   REMARKS
MILWAUKEE      MOSUNNY   19   8  62 NW12      30.47R WCI   7
MADISON        MOSUNNY   17   9  70 W3        30.48R
GREEN BAY      SUNNY     16   8  71 W7        30.45R WCI   6
EAU CLAIRE     MOSUNNY    5   2  87 SW5       30.46R WCI  -4
BLACK RVR FLS  FAIR       3  -1  81 CALM      30.48R
MEDFORD        MOSUNNY    6   2  86 CALM      30.37F
WAUSAU         MOSUNNY   10   4  76 CALM      30.39S
WIS RAPIDS     PTSUNNY   10   4  76 NW5       30.45R WCI   2
MARSHFIELD     MOSUNNY    7   1  76 N6        30.41S WCI  -3
RICE LAKE      PTSUNNY   -1  -4  85 CALM      30.44R
$$

...NORTHEAST IOWA...


CITY           SKY/WX    TMP DP  RH WIND       PRES   REMARKS
DECORAH        MOSUNNY    9   5  85 CALM      30.48R
MASON CITY     MOSUNNY    0  -2  91 W3        30.49S
CHARLES CITY   MOSUNNY    5   1  85 NW5       30.50S WCI  -4
OELWEIN        FOG        7   3  85 NW6       30.51R VSB 1/2 WCI  -3
$$

...ELSEWHERE IN IOWA...


CITY           SKY/WX    TMP DP  RH WIND       PRES   REMARKS
DES MOINES     CLOUDY    20  15  81 CALM      30.52S
IOWA CITY      MOSUNNY   10   7  87 W3        30.55R
FORT DODGE     SUNNY      7   1  78 CALM      30.50S
$$

...NORTHERN ILLINOIS...


CITY           SKY/WX    TMP DP  RH WIND       PRES   REMARKS
CHICAGO-OHARE  MOSUNNY   16   9  74 W7        30.48R WCI   6
CHICAGO-MIDWAY MOSUNNY   19  11  70 NW7       30.50R WCI  10
MOLINE         MOSUNNY    7   3  84 W6        30.54R WCI  -3
ROCKFORD       MOSUNNY   10   7  87 S3        30.52R
PEORIA         MOSUNNY   19  13  77 CALM      30.54R
$$

NOTE: "FAIR" INDICATES FEW OR NO CLOUDS BELOW 12,000 FEET WITH NO
SIGNIFICANT WEATHER AND/OR OBSTRUCTIONS TO VISIBILITY. WIND
SPEEDS ARE IN MILES-PER-HOUR.



USA.gov is the U.S. government's official web portal to all federal, state and local government web resources and services.